This is the latest recevied weather packets stored in our database for station/object VE3MNX. If no packets are shown the sender has not sent any weather packets the latest 10 day(s).
| Time | Temp. | Humidity | Pressure | Rain* | Wind** | Luminosity | Snow |
|---|---|---|---|---|---|---|---|
| 1778052199 | 7.22° C | 92% | 1007.1 hPa | 0.25 mm | - | - | - |
| 1778051298 | 7.22° C | 93% | 1007.5 hPa | 0 mm | - | - | - |
| 1778050397 | 7.22° C | 93% | 1007.5 hPa | 0 mm | - | - | - |
| 1778049497 | 7.22° C | 94% | 1007.1 hPa | 0 mm | - | - | - |
| 1778048599 | 7.22° C | 94% | 1007.1 hPa | 0.25 mm | - | - | - |
| 1778047697 | 7.22° C | 94% | 1007.1 hPa | 0.25 mm | - | - | - |
| 1778046800 | 7.78° C | 94% | 1007.5 hPa | 0.25 mm | - | - | - |
| 1778045899 | 7.78° C | 96% | 1007.5 hPa | 0.51 mm | - | - | - |
| 1778044998 | 7.78° C | 98% | 1007.5 hPa | 0.25 mm | - | - | - |
| 1778044097 | 8.33° C | 98% | 1007.5 hPa | 0.51 mm | - | - | - |
| 1778043198 | 8.33° C | 99% | 1007.7 hPa | 0 mm | - | - | - |
| 1778042297 | 8.33° C | 99% | 1007.5 hPa | 0 mm | - | - | - |
| 1778041400 | 8.33° C | 99% | 1007.5 hPa | 0 mm | - | - | - |
| 1778040500 | 8.33° C | 99% | 1007.5 hPa | 0 mm | - | - | - |
| 1778039598 | 8.89° C | 99% | 1007.5 hPa | 2.03 mm | - | - | - |
| 1778038697 | 8.89° C | 99% | 1007.5 hPa | 1.78 mm | - | - | - |
| 1778037799 | 8.89° C | 99% | 1007.5 hPa | 1.27 mm | - | - | - |
| 1778036898 | 8.89° C | 99% | 1007.8 hPa | 1.02 mm | - | - | - |
| 1778035998 | 8.89° C | 99% | 1007.8 hPa | 0.51 mm | - | - | - |
| 1778035097 | 8.89° C | 99% | 1007.8 hPa | 0.25 mm | - | - | - |
| 1778034199 | 8.89° C | 99% | 1007.5 hPa | 0.25 mm | - | - | - |
| 1778033298 | 8.89° C | 99% | 1007.1 hPa | 0 mm | - | - | - |
| 1778032399 | 8.89° C | 99% | 1007.1 hPa | 0.25 mm | - | - | - |
| 1778031497 | 8.89° C | 99% | 1006.8 hPa | 0.51 mm | - | - | - |
| 1778030598 | 8.89° C | 99% | 1006.8 hPa | 0.51 mm | - | - | - |
* Rain latest hour (hover to see other rain measurements)
** Current wind speed in m/s (hover to see current wind gust speed)